Year,Month,Day,Hour,Minute,Value (Times are PST for temperature in C)
2009,02,11,00,00,3.90
2009,02,11,00,01,3.90
2009,02,11,00,02,3.90
2009,02,11,00,03,3.90
2009,02,11,00,04,3.90
2009,02,11,00,05,3.90
2009,02,11,00,06,3.90
2009,02,11,00,07,3.90
2009,02,11,00,08,3.90
2009,02,11,00,09,3.90
2009,02,11,00,10,3.90
2009,02,11,00,11,3.90
2009,02,11,00,12,3.90
2009,02,11,00,13,3.90
2009,02,11,00,14,3.90
2009,02,11,00,15,3.90
2009,02,11,00,16,3.90
2009,02,11,00,17,3.90
2009,02,11,00,18,3.90
2009,02,11,00,19,3.90
2009,02,11,00,20,3.90
2009,02,11,00,21,3.90
2009,02,11,00,22,3.90
2009,02,11,00,23,3.90
2009,02,11,00,24,3.90
2009,02,11,00,25,3.90
2009,02,11,00,26,3.90
2009,02,11,00,27,3.90
2009,02,11,00,28,3.90
2009,02,11,00,29,3.90
2009,02,11,00,30,3.90
2009,02,11,00,31,3.90
2009,02,11,00,32,3.90
2009,02,11,00,33,3.90
2009,02,11,00,34,3.90
2009,02,11,00,35,3.90
2009,02,11,00,36,3.90
2009,02,11,00,37,3.90
2009,02,11,00,38,3.90
2009,02,11,00,39,3.90
2009,02,11,00,40,3.90
2009,02,11,00,41,3.90
2009,02,11,00,42,3.90
2009,02,11,00,43,3.90
2009,02,11,00,44,3.90
2009,02,11,00,45,3.90
2009,02,11,00,46,3.90
2009,02,11,00,47,3.90
2009,02,11,00,48,4.00
2009,02,11,00,49,3.90
2009,02,11,00,50,3.90
2009,02,11,00,51,3.90
2009,02,11,00,52,3.90
2009,02,11,00,53,3.90
2009,02,11,00,54,3.90
2009,02,11,00,55,4.00
2009,02,11,00,56,4.00
2009,02,11,00,57,4.00
2009,02,11,00,58,4.00
2009,02,11,00,59,4.00
2009,02,11,01,00,4.00
2009,02,11,01,01,4.00
2009,02,11,01,02,4.10
2009,02,11,01,03,4.10
2009,02,11,01,04,4.10
2009,02,11,01,05,4.10
2009,02,11,01,06,4.10
2009,02,11,01,07,4.10
2009,02,11,01,08,4.10
2009,02,11,01,09,4.10
2009,02,11,01,10,4.10
2009,02,11,01,11,4.10
2009,02,11,01,12,4.10
2009,02,11,01,13,4.20
2009,02,11,01,14,4.20
2009,02,11,01,15,4.20
2009,02,11,01,16,4.20
2009,02,11,01,17,4.20
2009,02,11,01,18,4.20
2009,02,11,01,19,4.20
2009,02,11,01,20,4.20
2009,02,11,01,21,4.20
2009,02,11,01,22,4.20
2009,02,11,01,23,4.20
2009,02,11,01,24,4.20
2009,02,11,01,25,4.20
2009,02,11,01,26,4.20
2009,02,11,01,27,4.20
2009,02,11,01,28,4.30
2009,02,11,01,29,4.20
2009,02,11,01,30,4.20
2009,02,11,01,31,4.20
2009,02,11,01,32,4.20
2009,02,11,01,33,4.20
2009,02,11,01,34,4.20
2009,02,11,01,35,4.20
2009,02,11,01,36,4.20
2009,02,11,01,37,4.20
2009,02,11,01,38,4.20
2009,02,11,01,39,4.20
2009,02,11,01,40,4.20
2009,02,11,01,41,4.20
2009,02,11,01,42,4.20
2009,02,11,01,43,4.20
2009,02,11,01,44,4.30
2009,02,11,01,45,4.30
2009,02,11,01,46,4.30
2009,02,11,01,47,4.30
2009,02,11,01,48,4.30
2009,02,11,01,49,4.30
2009,02,11,01,50,4.30
2009,02,11,01,51,4.30
2009,02,11,01,52,4.30
2009,02,11,01,53,4.30
2009,02,11,01,54,4.30
2009,02,11,01,55,4.30
2009,02,11,01,56,4.30
2009,02,11,01,57,4.30
2009,02,11,01,58,4.30
2009,02,11,01,59,4.30
2009,02,11,02,00,4.30
2009,02,11,02,01,4.30
2009,02,11,02,02,4.30
2009,02,11,02,03,4.30
2009,02,11,02,04,4.30
2009,02,11,02,05,4.30
2009,02,11,02,06,4.30
2009,02,11,02,07,4.30
2009,02,11,02,08,4.30
2009,02,11,02,09,4.30
2009,02,11,02,10,4.30
2009,02,11,02,11,4.30
2009,02,11,02,12,4.30
2009,02,11,02,13,4.30
2009,02,11,02,14,4.30
2009,02,11,02,15,4.30
2009,02,11,02,16,4.30
2009,02,11,02,17,4.30
2009,02,11,02,18,4.30
2009,02,11,02,19,4.30
2009,02,11,02,20,4.30
2009,02,11,02,21,4.30
2009,02,11,02,22,4.30
2009,02,11,02,23,4.30
2009,02,11,02,24,4.30
2009,02,11,02,25,4.30
2009,02,11,02,26,4.40
2009,02,11,02,27,4.40
2009,02,11,02,28,4.40
2009,02,11,02,29,4.40
2009,02,11,02,30,4.40
2009,02,11,02,31,4.40
2009,02,11,02,32,4.40
2009,02,11,02,33,4.40
2009,02,11,02,34,4.40
2009,02,11,02,35,4.40
2009,02,11,02,36,4.40
2009,02,11,02,37,4.40
2009,02,11,02,38,4.40
2009,02,11,02,39,4.40
2009,02,11,02,40,4.40
2009,02,11,02,41,4.40
2009,02,11,02,42,4.40
2009,02,11,02,43,4.40
2009,02,11,02,44,4.40
2009,02,11,02,45,4.40
2009,02,11,02,46,4.40
2009,02,11,02,47,4.40
2009,02,11,02,48,4.40
2009,02,11,02,49,4.40
2009,02,11,02,50,4.40
2009,02,11,02,51,4.40
2009,02,11,02,52,4.40
2009,02,11,02,53,4.40
2009,02,11,02,54,4.40
2009,02,11,02,55,4.40
2009,02,11,02,56,4.40
2009,02,11,02,57,4.40
2009,02,11,02,58,4.40
2009,02,11,02,59,4.40
2009,02,11,03,00,4.40
2009,02,11,03,01,4.40
2009,02,11,03,02,4.40
2009,02,11,03,03,4.40
2009,02,11,03,04,4.40
2009,02,11,03,05,4.30
2009,02,11,03,06,4.30
2009,02,11,03,07,4.30
2009,02,11,03,08,4.30
2009,02,11,03,09,4.30
2009,02,11,03,10,4.30
2009,02,11,03,11,4.30
2009,02,11,03,12,4.30
2009,02,11,03,13,4.30
2009,02,11,03,14,4.30
2009,02,11,03,15,4.30
2009,02,11,03,16,4.30
2009,02,11,03,17,4.40
2009,02,11,03,18,4.40
2009,02,11,03,19,4.40
2009,02,11,03,20,4.30
2009,02,11,03,21,4.30
2009,02,11,03,22,4.30
2009,02,11,03,23,4.30
2009,02,11,03,24,4.30
2009,02,11,03,25,4.30
2009,02,11,03,26,4.30
2009,02,11,03,27,4.30
2009,02,11,03,28,4.30
2009,02,11,03,29,4.30
2009,02,11,03,30,4.30
2009,02,11,03,31,4.30
2009,02,11,03,32,4.20
2009,02,11,03,33,4.20
2009,02,11,03,34,4.20
2009,02,11,03,35,4.20
2009,02,11,03,36,4.20
2009,02,11,03,37,4.20
2009,02,11,03,38,4.10
2009,02,11,03,39,4.10
2009,02,11,03,40,4.10
2009,02,11,03,41,4.10
2009,02,11,03,42,4.10
2009,02,11,03,43,4.10
2009,02,11,03,44,4.00
2009,02,11,03,45,4.00
2009,02,11,03,46,4.00
2009,02,11,03,47,4.00
2009,02,11,03,48,3.90
2009,02,11,03,49,3.90
2009,02,11,03,50,3.90
2009,02,11,03,51,3.90
2009,02,11,03,52,3.90
2009,02,11,03,53,3.90
2009,02,11,03,54,3.90
2009,02,11,03,55,3.90
2009,02,11,03,56,3.90
2009,02,11,03,57,3.90
2009,02,11,03,58,3.80
2009,02,11,03,59,3.80
2009,02,11,04,00,3.80
2009,02,11,04,01,3.80
2009,02,11,04,02,3.80
2009,02,11,04,03,3.70
2009,02,11,04,05,3.70
2009,02,11,04,06,3.70
2009,02,11,04,37,3.50
2009,02,11,04,53,3.30
2009,02,11,05,06,3.20
2009,02,11,05,21,3.20
2009,02,11,05,30,3.20
2009,02,11,05,45,3.40
2009,02,11,06,05,3.30
2009,02,11,06,19,3.20
2009,02,11,06,35,3.10
2009,02,11,06,49,3.10
2009,02,11,07,02,3.10
2009,02,11,07,17,3.10
2009,02,11,07,26,3.00
2009,02,11,07,38,2.90
2009,02,11,07,55,3.00
2009,02,11,08,11,3.10
2009,02,11,08,26,3.30
2009,02,11,08,40,3.50
2009,02,11,08,51,3.70
2009,02,11,09,04,3.70
2009,02,11,09,18,3.90
2009,02,11,09,30,4.10
2009,02,11,09,41,4.20
2009,02,11,09,50,4.20
2009,02,11,10,00,4.40
2009,02,11,10,15,4.60
2009,02,11,10,31,4.70
2009,02,11,10,45,4.80
2009,02,11,11,00,4.90
2009,02,11,11,10,5.10
2009,02,11,11,18,5.10
2009,02,11,11,26,5.10
2009,02,11,11,33,5.50
2009,02,11,11,46,5.30
2009,02,11,11,58,5.90
2009,02,11,12,13,5.80
2009,02,11,12,28,6.30
2009,02,11,12,39,6.30
2009,02,11,12,40,6.30
2009,02,11,12,41,6.30
2009,02,11,12,42,6.30
2009,02,11,12,43,6.30
2009,02,11,12,44,6.20
2009,02,11,12,45,6.10
2009,02,11,12,46,6.10
2009,02,11,12,47,6.00
2009,02,11,12,48,6.00
2009,02,11,12,49,6.00
2009,02,11,12,50,6.10
2009,02,11,12,51,6.10
2009,02,11,12,52,6.10
2009,02,11,12,53,6.20
2009,02,11,12,54,6.10
2009,02,11,12,55,6.10
2009,02,11,12,56,6.00
2009,02,11,12,57,6.00
2009,02,11,12,58,6.00
2009,02,11,12,59,5.90
2009,02,11,13,00,5.90
2009,02,11,13,01,5.80
2009,02,11,13,02,5.90
2009,02,11,13,03,5.90
2009,02,11,13,04,5.90
2009,02,11,13,05,5.90
2009,02,11,13,06,5.90
2009,02,11,13,07,6.00
2009,02,11,13,08,6.10
2009,02,11,13,09,6.20
2009,02,11,13,10,6.20
2009,02,11,13,11,6.30
2009,02,11,13,12,6.30
2009,02,11,13,13,6.40
2009,02,11,13,14,6.40
2009,02,11,13,15,6.40
2009,02,11,13,16,6.40
2009,02,11,13,17,6.30
2009,02,11,13,18,6.40
2009,02,11,13,19,6.40
2009,02,11,13,20,6.40
2009,02,11,13,21,6.40
2009,02,11,13,22,6.40
2009,02,11,13,23,6.40
2009,02,11,13,24,6.40
2009,02,11,13,25,6.40
2009,02,11,13,26,6.40
2009,02,11,13,27,6.40
2009,02,11,13,28,6.40
2009,02,11,13,29,6.40
2009,02,11,13,30,6.40
2009,02,11,13,31,6.40
2009,02,11,13,32,6.30
2009,02,11,13,33,6.30
2009,02,11,13,34,6.20
2009,02,11,13,35,6.20
2009,02,11,13,36,6.10
2009,02,11,13,37,6.10
2009,02,11,13,38,6.10
2009,02,11,13,39,6.00
2009,02,11,13,40,6.00
2009,02,11,13,41,5.90
2009,02,11,13,42,5.90
2009,02,11,13,43,5.80
2009,02,11,13,44,5.80
2009,02,11,13,45,5.80
2009,02,11,13,46,5.80
2009,02,11,13,47,5.80
2009,02,11,13,48,5.80
2009,02,11,13,49,5.80
2009,02,11,13,50,5.80
2009,02,11,13,51,5.90
2009,02,11,13,52,5.90
2009,02,11,13,53,5.90
2009,02,11,13,54,5.90
2009,02,11,13,55,5.90
2009,02,11,13,56,6.00
2009,02,11,13,57,6.00
2009,02,11,13,58,6.00
2009,02,11,13,59,6.00
2009,02,11,14,00,6.00
2009,02,11,14,01,6.10
2009,02,11,14,02,6.00
2009,02,11,14,03,6.00
2009,02,11,14,04,6.00
2009,02,11,14,05,5.90
2009,02,11,14,06,5.90
2009,02,11,14,07,5.90
2009,02,11,14,08,5.90
2009,02,11,14,09,5.90
2009,02,11,14,10,6.00
2009,02,11,14,11,6.00
2009,02,11,14,12,6.10
2009,02,11,14,13,6.10
2009,02,11,14,14,6.20
2009,02,11,14,15,6.20
2009,02,11,14,16,6.30
2009,02,11,14,17,6.30
2009,02,11,14,18,6.40
2009,02,11,14,19,6.40
2009,02,11,14,20,6.40
2009,02,11,14,21,6.40
2009,02,11,14,22,6.30
2009,02,11,14,23,6.30
2009,02,11,14,24,6.20
2009,02,11,14,25,6.10
2009,02,11,14,26,6.00
2009,02,11,14,27,6.00
2009,02,11,14,28,5.90
2009,02,11,14,29,5.80
2009,02,11,14,30,5.80
2009,02,11,14,31,5.70
2009,02,11,14,32,5.70
2009,02,11,14,33,5.70
2009,02,11,14,34,5.70
2009,02,11,14,35,5.60
2009,02,11,14,36,5.60
2009,02,11,14,37,5.60
2009,02,11,14,38,5.60
2009,02,11,14,39,5.60
2009,02,11,14,40,5.60
2009,02,11,14,41,5.60
2009,02,11,14,42,5.60
2009,02,11,14,43,5.60
2009,02,11,14,44,5.60
2009,02,11,14,45,5.60
2009,02,11,14,46,5.50
2009,02,11,14,47,5.50
2009,02,11,14,48,5.50
2009,02,11,14,49,5.50
2009,02,11,14,50,5.50
2009,02,11,14,51,5.60
2009,02,11,14,52,5.60
2009,02,11,14,53,5.60
2009,02,11,14,54,5.60
2009,02,11,14,55,5.60
2009,02,11,14,56,5.60
2009,02,11,14,57,5.60
2009,02,11,14,58,5.60
2009,02,11,14,59,5.60
2009,02,11,15,00,5.60
2009,02,11,15,01,5.50
2009,02,11,15,02,5.50
2009,02,11,15,03,5.50
2009,02,11,15,04,5.50
2009,02,11,15,05,5.50
2009,02,11,15,06,5.50
2009,02,11,15,07,5.40
2009,02,11,15,08,5.40
2009,02,11,15,09,5.40
2009,02,11,15,10,5.40
2009,02,11,15,11,5.40
2009,02,11,15,12,5.40
2009,02,11,15,13,5.40
2009,02,11,15,14,5.50
2009,02,11,15,15,5.50
2009,02,11,15,16,5.50
2009,02,11,15,17,5.50
2009,02,11,15,18,5.50
2009,02,11,15,19,5.50
2009,02,11,15,20,5.50
2009,02,11,15,21,5.50
2009,02,11,15,22,5.50
2009,02,11,15,23,5.60
2009,02,11,15,24,5.60
2009,02,11,15,25,5.60
2009,02,11,15,26,5.60
2009,02,11,15,27,5.60
2009,02,11,15,28,5.60
2009,02,11,15,29,5.60
2009,02,11,15,30,5.60
2009,02,11,15,31,5.60
2009,02,11,15,32,5.60
2009,02,11,15,33,5.60
2009,02,11,15,34,5.50
2009,02,11,15,35,5.50
2009,02,11,15,36,5.50
2009,02,11,15,37,5.50
2009,02,11,15,38,5.40
2009,02,11,15,39,5.40
2009,02,11,15,40,5.40
2009,02,11,15,41,5.40
2009,02,11,15,42,5.40
2009,02,11,15,43,5.40
2009,02,11,15,44,5.40
2009,02,11,15,45,5.40
2009,02,11,15,46,5.40
2009,02,11,15,47,5.40
2009,02,11,15,48,5.40
2009,02,11,15,49,5.40
2009,02,11,15,50,5.40
2009,02,11,15,51,5.40
2009,02,11,15,52,5.40
2009,02,11,15,53,5.40
2009,02,11,15,54,5.40
2009,02,11,15,55,5.40
2009,02,11,15,56,5.40
2009,02,11,15,57,5.40
2009,02,11,15,58,5.40
2009,02,11,15,59,5.40
2009,02,11,16,00,5.40
2009,02,11,16,01,5.40
2009,02,11,16,02,5.40
2009,02,11,16,03,5.40
2009,02,11,16,04,5.40
2009,02,11,16,05,5.40
2009,02,11,16,06,5.40
2009,02,11,16,07,5.40
2009,02,11,16,08,5.40
2009,02,11,16,09,5.40
2009,02,11,16,10,5.40
2009,02,11,16,11,5.40
2009,02,11,16,12,5.40
2009,02,11,16,13,5.40
2009,02,11,16,14,5.40
2009,02,11,16,15,5.40
2009,02,11,16,16,5.40
2009,02,11,16,17,5.30
2009,02,11,16,18,5.30
2009,02,11,16,19,5.30
2009,02,11,16,20,5.30
2009,02,11,16,21,5.30
2009,02,11,16,22,5.30
2009,02,11,16,23,5.20
2009,02,11,16,24,5.20
2009,02,11,16,25,5.20
2009,02,11,16,26,5.20
2009,02,11,16,27,5.20
2009,02,11,16,28,5.20
2009,02,11,16,29,5.20
2009,02,11,16,30,5.20
2009,02,11,16,31,5.20
2009,02,11,16,32,5.20
2009,02,11,16,33,5.20
2009,02,11,16,34,5.20
2009,02,11,16,35,5.20
2009,02,11,16,36,5.20
2009,02,11,16,37,5.20
2009,02,11,16,38,5.20
2009,02,11,16,39,5.20
2009,02,11,16,40,5.20
2009,02,11,16,41,5.20
2009,02,11,16,42,5.20
2009,02,11,16,43,5.20
2009,02,11,16,44,5.20
2009,02,11,16,45,5.20
2009,02,11,16,46,5.20
2009,02,11,16,47,5.20
2009,02,11,16,48,5.20
2009,02,11,16,49,5.20
2009,02,11,16,50,5.20
2009,02,11,16,51,5.20
2009,02,11,16,52,5.20
2009,02,11,16,53,5.20
2009,02,11,16,54,5.20
2009,02,11,16,55,5.20
2009,02,11,16,56,5.20
2009,02,11,16,57,5.20
2009,02,11,16,58,5.10
2009,02,11,16,59,5.10
2009,02,11,17,00,5.10
2009,02,11,17,01,5.10
2009,02,11,17,02,5.10
2009,02,11,17,03,5.10
2009,02,11,17,04,5.10
2009,02,11,17,05,5.10
2009,02,11,17,06,5.10
2009,02,11,17,07,5.00
2009,02,11,17,08,5.00
2009,02,11,17,09,5.00
2009,02,11,17,10,5.00
2009,02,11,17,11,5.00
2009,02,11,17,12,5.00
2009,02,11,17,13,5.00
2009,02,11,17,14,4.90
2009,02,11,17,15,4.90
2009,02,11,17,16,4.90
2009,02,11,17,17,4.90
2009,02,11,17,18,4.90
2009,02,11,17,19,4.90
2009,02,11,17,20,4.90
2009,02,11,17,21,4.90
2009,02,11,17,22,4.90
2009,02,11,17,23,4.90
2009,02,11,17,24,4.90
2009,02,11,17,25,4.90
2009,02,11,17,26,4.80
2009,02,11,17,27,4.80
2009,02,11,17,28,4.80
2009,02,11,17,29,4.70
2009,02,11,17,30,4.70
2009,02,11,17,31,4.60
2009,02,11,17,32,4.50
2009,02,11,17,33,4.50
2009,02,11,17,34,4.40
2009,02,11,17,35,4.40
2009,02,11,17,36,4.30
2009,02,11,17,37,4.30
2009,02,11,17,38,4.20
2009,02,11,17,39,4.20
2009,02,11,17,40,4.20
2009,02,11,17,41,4.10
2009,02,11,17,42,4.10
2009,02,11,17,43,4.10
2009,02,11,17,44,4.10
2009,02,11,17,45,4.00
2009,02,11,17,46,4.00
2009,02,11,17,47,4.00
2009,02,11,17,48,3.90
2009,02,11,17,49,3.90
2009,02,11,17,50,3.90
2009,02,11,17,51,3.90
2009,02,11,17,52,3.80
2009,02,11,17,53,3.80
2009,02,11,17,54,3.80
2009,02,11,17,55,3.80
2009,02,11,17,56,3.80
2009,02,11,17,57,3.80
2009,02,11,17,58,3.80
2009,02,11,17,59,3.70
2009,02,11,18,00,3.70
2009,02,11,18,01,3.70
2009,02,11,18,02,3.70
2009,02,11,18,03,3.70
2009,02,11,18,04,3.70
2009,02,11,18,05,3.70
2009,02,11,18,06,3.70
2009,02,11,18,07,3.60
2009,02,11,18,08,3.60
2009,02,11,18,09,3.60
2009,02,11,18,10,3.50
2009,02,11,18,11,3.50
2009,02,11,18,12,3.50
2009,02,11,18,13,3.50
2009,02,11,18,14,3.40
2009,02,11,18,15,3.40
2009,02,11,18,16,3.40
2009,02,11,18,17,3.40
2009,02,11,18,18,3.30
2009,02,11,18,19,3.30
2009,02,11,18,20,3.30
2009,02,11,18,21,3.30
2009,02,11,18,22,3.30
2009,02,11,18,23,3.30
2009,02,11,18,24,3.30
2009,02,11,18,25,3.20
2009,02,11,18,26,3.20
2009,02,11,18,27,3.20
2009,02,11,18,28,3.20
2009,02,11,18,29,3.20
2009,02,11,18,30,3.20
2009,02,11,18,31,3.20
2009,02,11,18,32,3.20
2009,02,11,18,33,3.10
2009,02,11,18,34,3.10
2009,02,11,18,35,3.10
2009,02,11,18,36,3.10
2009,02,11,18,37,3.10
2009,02,11,18,38,3.10
2009,02,11,18,39,3.10
2009,02,11,18,40,3.00
2009,02,11,18,41,3.00
2009,02,11,18,42,3.00
2009,02,11,18,43,3.00
2009,02,11,18,44,2.90
2009,02,11,18,45,2.90
2009,02,11,18,46,2.90
2009,02,11,18,47,2.90
2009,02,11,18,48,2.80
2009,02,11,18,49,2.80
2009,02,11,18,50,2.80
2009,02,11,18,51,2.70
2009,02,11,18,52,2.70
2009,02,11,18,53,2.70
2009,02,11,18,54,2.70
2009,02,11,18,55,2.70
2009,02,11,18,56,2.70
2009,02,11,18,57,2.70
2009,02,11,18,58,2.70
2009,02,11,18,59,2.70
2009,02,11,19,00,2.70
2009,02,11,19,01,2.70
2009,02,11,19,02,2.70
2009,02,11,19,03,2.80
2009,02,11,19,04,2.80
2009,02,11,19,05,2.80
2009,02,11,19,06,2.70
2009,02,11,19,07,2.70
2009,02,11,19,08,2.70
2009,02,11,19,09,2.70
2009,02,11,19,10,2.70
2009,02,11,19,11,2.60
2009,02,11,19,12,2.60
2009,02,11,19,13,2.50
2009,02,11,19,14,2.40
2009,02,11,19,15,2.40
2009,02,11,19,16,2.30
2009,02,11,19,17,2.30
2009,02,11,19,18,2.30
2009,02,11,19,19,2.30
2009,02,11,19,20,2.20
2009,02,11,19,21,2.20
2009,02,11,19,22,2.20
2009,02,11,19,23,2.20
2009,02,11,19,24,2.20
2009,02,11,19,25,2.20
2009,02,11,19,26,2.20
2009,02,11,19,27,2.20
2009,02,11,19,28,2.20
2009,02,11,19,29,2.20
2009,02,11,19,30,2.20
2009,02,11,19,31,2.20
2009,02,11,19,32,2.20
2009,02,11,19,33,2.20
2009,02,11,19,34,2.20
2009,02,11,19,35,2.20
2009,02,11,19,36,2.20
2009,02,11,19,37,2.20
2009,02,11,19,38,2.20
2009,02,11,19,39,2.20
2009,02,11,19,40,2.20
2009,02,11,19,41,2.20
2009,02,11,19,42,2.20
2009,02,11,19,43,2.10
2009,02,11,19,44,2.10
2009,02,11,19,45,2.10
2009,02,11,19,46,2.10
2009,02,11,19,47,2.10
2009,02,11,19,48,2.00
2009,02,11,19,49,2.00
2009,02,11,19,50,1.90
2009,02,11,19,51,1.90
2009,02,11,19,52,1.90
2009,02,11,19,53,1.90
2009,02,11,19,54,1.90
2009,02,11,19,55,1.90
2009,02,11,19,56,1.90
2009,02,11,19,57,1.90
2009,02,11,19,58,1.90
2009,02,11,19,59,1.90
2009,02,11,20,00,1.90
2009,02,11,20,01,1.90
2009,02,11,20,02,1.90
2009,02,11,20,03,1.90
2009,02,11,20,04,1.90
2009,02,11,20,05,1.90
2009,02,11,20,06,1.90
2009,02,11,20,07,1.80
2009,02,11,20,08,1.80
2009,02,11,20,09,1.80
2009,02,11,20,10,1.80
2009,02,11,20,11,1.80
2009,02,11,20,12,1.70
2009,02,11,20,13,1.70
2009,02,11,20,14,1.70
2009,02,11,20,15,1.70
2009,02,11,20,16,1.70
2009,02,11,20,17,1.60
2009,02,11,20,18,1.60
2009,02,11,20,19,1.60
2009,02,11,20,20,1.60
2009,02,11,20,21,1.60
2009,02,11,20,22,1.60
2009,02,11,20,23,1.60
2009,02,11,20,24,1.60
2009,02,11,20,25,1.60
2009,02,11,20,26,1.60
2009,02,11,20,27,1.60
2009,02,11,20,28,1.60
2009,02,11,20,29,1.60
2009,02,11,20,30,1.60
2009,02,11,20,31,1.60
2009,02,11,20,32,1.60
2009,02,11,20,33,1.60
2009,02,11,20,34,1.60
2009,02,11,20,35,1.60
2009,02,11,20,36,1.60
2009,02,11,20,37,1.50
2009,02,11,20,38,1.50
2009,02,11,20,39,1.50
2009,02,11,20,40,1.40
2009,02,11,20,41,1.40
2009,02,11,20,42,1.40
2009,02,11,20,43,1.40
2009,02,11,20,44,1.30
2009,02,11,20,45,1.30
2009,02,11,20,46,1.30
2009,02,11,20,47,1.30
2009,02,11,20,48,1.30
2009,02,11,20,49,1.30
2009,02,11,20,50,1.30
2009,02,11,20,51,1.30
2009,02,11,20,52,1.30
2009,02,11,20,53,1.30
2009,02,11,20,54,1.30
2009,02,11,20,55,1.30
2009,02,11,20,56,1.20
2009,02,11,20,57,1.20
2009,02,11,20,58,1.20
2009,02,11,20,59,1.20
2009,02,11,21,00,1.10
2009,02,11,21,01,1.10
2009,02,11,21,02,1.10
2009,02,11,21,03,1.10
2009,02,11,21,04,1.20
2009,02,11,21,05,1.20
2009,02,11,21,06,1.20
2009,02,11,21,07,1.10
2009,02,11,21,08,1.10
2009,02,11,21,09,1.10
2009,02,11,21,10,1.10
2009,02,11,21,11,1.10
2009,02,11,21,12,1.10
2009,02,11,21,13,1.10
2009,02,11,21,14,1.10
2009,02,11,21,15,1.10
2009,02,11,21,16,1.10
2009,02,11,21,17,1.10
2009,02,11,21,18,1.10
2009,02,11,21,19,1.10
2009,02,11,21,20,1.10
2009,02,11,21,21,1.00
2009,02,11,21,22,1.00
2009,02,11,21,23,0.90
2009,02,11,21,24,0.90
2009,02,11,21,25,0.90
2009,02,11,21,26,0.90
2009,02,11,21,27,0.90
2009,02,11,21,28,0.80
2009,02,11,21,29,0.80
2009,02,11,21,30,0.80
2009,02,11,21,31,0.80
2009,02,11,21,32,0.90
2009,02,11,21,33,0.90
2009,02,11,21,34,0.90
2009,02,11,21,35,0.90
2009,02,11,21,36,0.90
2009,02,11,21,37,0.90
2009,02,11,21,38,0.90
2009,02,11,21,39,0.90
2009,02,11,21,40,0.90
2009,02,11,21,41,0.90
2009,02,11,21,42,0.80
2009,02,11,21,43,0.80
2009,02,11,21,44,0.80
2009,02,11,21,45,0.80
2009,02,11,21,46,0.70
2009,02,11,21,47,0.70
2009,02,11,21,48,0.70
2009,02,11,21,49,0.60
2009,02,11,21,50,0.60
2009,02,11,21,51,0.50
2009,02,11,21,52,0.50
2009,02,11,21,53,0.40
2009,02,11,21,54,0.40
2009,02,11,21,55,0.30
2009,02,11,21,56,0.30
2009,02,11,21,57,0.30
2009,02,11,21,58,0.30
2009,02,11,21,59,0.30
2009,02,11,22,00,0.30
2009,02,11,22,01,0.30
2009,02,11,22,02,0.30
2009,02,11,22,03,0.20
2009,02,11,22,04,0.20
2009,02,11,22,05,0.20
2009,02,11,22,06,0.20
2009,02,11,22,07,0.20
2009,02,11,22,08,0.20
2009,02,11,22,09,0.20
2009,02,11,22,10,0.20
2009,02,11,22,11,0.20
2009,02,11,22,12,0.20
2009,02,11,22,13,0.20
2009,02,11,22,14,0.30
2009,02,11,22,15,0.30
2009,02,11,22,16,0.30
2009,02,11,22,17,0.30
2009,02,11,22,18,0.30
2009,02,11,22,19,0.40
2009,02,11,22,20,0.40
2009,02,11,22,21,0.40
2009,02,11,22,22,0.40
2009,02,11,22,23,0.40
2009,02,11,22,24,0.40
2009,02,11,22,25,0.40
2009,02,11,22,26,0.40
2009,02,11,22,27,0.40
2009,02,11,22,28,0.40
2009,02,11,22,29,0.30
2009,02,11,22,30,0.30
2009,02,11,22,31,0.30
2009,02,11,22,32,0.30
2009,02,11,22,33,0.30
2009,02,11,22,34,0.30
2009,02,11,22,35,0.30
2009,02,11,22,36,0.20
2009,02,11,22,37,0.20
2009,02,11,22,38,0.30
2009,02,11,22,39,0.30
2009,02,11,22,40,0.30
2009,02,11,22,41,0.40
2009,02,11,22,42,0.40
2009,02,11,22,43,0.40
2009,02,11,22,44,0.40
2009,02,11,22,45,0.40
2009,02,11,22,46,0.50
2009,02,11,22,47,0.40
2009,02,11,22,48,0.40
2009,02,11,22,49,0.50
2009,02,11,22,50,0.50
2009,02,11,22,51,0.40
2009,02,11,22,52,0.40
2009,02,11,22,53,0.40
2009,02,11,22,54,0.40
2009,02,11,22,55,0.40
2009,02,11,22,56,0.40
2009,02,11,22,57,0.40
2009,02,11,22,58,0.40
2009,02,11,22,59,0.40
2009,02,11,23,00,0.40
2009,02,11,23,01,0.40
2009,02,11,23,02,0.40
2009,02,11,23,03,0.40
2009,02,11,23,04,0.40
2009,02,11,23,05,0.40
2009,02,11,23,06,0.40
2009,02,11,23,07,0.40
2009,02,11,23,08,0.40
2009,02,11,23,09,0.40
2009,02,11,23,10,0.40
2009,02,11,23,11,0.40
2009,02,11,23,12,0.50
2009,02,11,23,13,0.50
2009,02,11,23,14,0.50
2009,02,11,23,15,0.50
2009,02,11,23,16,0.50
2009,02,11,23,17,0.60
2009,02,11,23,18,0.60
2009,02,11,23,19,0.60
2009,02,11,23,20,0.60
2009,02,11,23,21,0.60
2009,02,11,23,22,0.60
2009,02,11,23,23,0.60
2009,02,11,23,24,0.60
2009,02,11,23,25,0.60
2009,02,11,23,26,0.60
2009,02,11,23,27,0.60
2009,02,11,23,28,0.60
2009,02,11,23,29,0.60
2009,02,11,23,30,0.60
2009,02,11,23,31,0.60
2009,02,11,23,32,0.60
2009,02,11,23,33,0.60
2009,02,11,23,34,0.60
2009,02,11,23,35,0.60
2009,02,11,23,36,0.60
2009,02,11,23,37,0.60
2009,02,11,23,38,0.60
2009,02,11,23,39,0.60
2009,02,11,23,40,0.60
2009,02,11,23,41,0.50
2009,02,11,23,42,0.50
2009,02,11,23,43,0.50
2009,02,11,23,44,0.40
2009,02,11,23,45,0.40
2009,02,11,23,46,0.40
2009,02,11,23,47,0.40
2009,02,11,23,48,0.40
2009,02,11,23,49,0.40
2009,02,11,23,50,0.40
2009,02,11,23,51,0.40
2009,02,11,23,52,0.40
2009,02,11,23,53,0.40
2009,02,11,23,54,0.40
2009,02,11,23,55,0.50
2009,02,11,23,56,0.40
2009,02,11,23,57,0.50
2009,02,11,23,58,0.40
2009,02,11,23,59,0.40
